Regional Weather Roundup
Issued by NWS

Home | Current Version | Previous Version | Graphics & Text | Print | Product List | Glossary On
Versions: 1 2 3 4 5 6 7 8 9 10 11 12 13 14 15 16 17 18 19 20 21 22 23 24 25 26 27 28 29 30 31 32 33 34 35 36 37 38 39 40 41 42 43 44 45 46 47 48 49 50
000
ASUS43 KFSD 291910
RWRSD

WEATHER ROUNDUP FOR SOUTH DAKOTA
NATIONAL WEATHER SERVICE SIOUX FALLS SD
200 PM CDT MON JUN 29 2015

NOTE: "FAIR" INDICATES FEW OR NO CLOUDS BELOW 12,000 FEET WITH NO
SIGNIFICANT WEATHER AND/OR OBSTRUCTIONS TO VISIBILITY.


SDZ001>005-009-010-012>017-292000-
NORTHWEST AND NORTH CENTRAL SOUTH DAKOTA

CITY           SKY/WX    TMP DP  RH WIND       PRES   REMARKS
BUFFALO          N/A     90  54  29 NW6       30.00F
FAITH            N/A     88  58  36 NW7       30.03F
MOBRIDGE       SUNNY     91  59  33 NW14      29.95S
$$

SDZ012>016-024>037-041>051-057-063-072>074-292000-
SOUTHWEST AND SOUTH CENTRAL SOUTH DAKOTA

CITY           SKY/WX    TMP DP  RH WIND       PRES   REMARKS
RAPID CTY ARPT SUNNY     85  62  46 E6        30.09F
PIERRE         SUNNY     86  62  44 NW12      29.97S
CUSTER         PTSUNNY   79  53  40 VRB3      30.24F
ELLSWORTH AFB  SUNNY     85  61  44 VRB2      30.09S
PHILIP         SUNNY     88  59  37 CALM      30.01
PINE RIDGE     SUNNY     85  57  38 NW9       30.10F
SPEARFISH      FAIR      82  59  44 NW3       30.15S
WINNER         FAIR      89  52  28 NW12      30.00F
$$

SDZ004>011-016>023-039-040-292000-
NORTHEAST SOUTH DAKOTA

CITY           SKY/WX    TMP DP  RH WIND       PRES   REMARKS
ABERDEEN       SUNNY     86  62  44 NW12      29.91F
WATERTOWN      SUNNY     79  60  52 W10       29.93F
BROOKINGS      SUNNY     79  59  50 NW14      29.95S
SISSETON         N/A     80  60  50 NW14      29.88S
$$

SDZ017-020-022-023-036>040-048>070-292000-
SOUTHEAST SOUTH DAKOTA

CITY           SKY/WX    TMP DP  RH WIND       PRES   REMARKS
SIOUX FALLS    MOSUNNY   81  60  48 NW13      29.93F HAZE
HURON          SUNNY     83  61  47 N8        29.93F
CHAMBERLAIN    SUNNY     87  56  34 NW7       29.96F
MITCHELL       SUNNY     85  58  39 NW12      29.95F
YANKTON        SUNNY     84  57  39 W12G18    29.93F
$$

ABBREVIATIONS USED IN REMARKS
   TC - TEMPERATURE IN CELSIUS
  WCI - WIND CHILL INDEX
   HX - HEAT INDEX
  VSB - VISIBILITY




USA.gov is the U.S. government's official web portal to all federal, state and local government web resources and services.